Date String (YYYY-MM-DD hh:mm:ss) UTC,Instrument flags,Ambient pressure (hPa),Sample flow (lpm),Bypass flow (lpm),Sample temperature (°C),Ambient temperature (°C),ASC tube jacket temperature (°C),LED temperature (°C),Box temperature (°C),Sample RH (%),Span deviation,Mass concentration (μg/m³),Mass concentration (μg/m³),Mass concentration (μg/m³)
DateTimeUTC,F1_M11,P_M11,Q1_M11,Q2_M11,T1_M11,T2_M11,T3_M11,T4_M11,T5_M11,U1_M11,ZSPAN_M11,X2_M11,X0_M11,X1_M11
2022-06-06 01:00:00,,0820.2,4.99,0.00,29.2,27.9,00.0,38.0,31.1,26.6,0000.0,0004.83,0012.13,0003.18
2022-06-06 01:01:00,,0820.2,5.00,0.00,29.2,28.0,00.0,38.0,31.1,27.6,0000.0,0004.86,0012.03,0003.18
2022-06-06 01:02:00,,0820.2,5.00,0.00,29.2,28.1,00.0,38.1,31.2,25.8,0000.0,0004.81,0011.57,0003.15
2022-06-06 01:03:00,,0820.2,5.02,0.00,29.3,28.2,00.0,38.1,31.2,23.8,0000.0,0004.77,0010.98,0003.12
2022-06-06 01:04:00,,0820.2,5.00,0.00,29.3,28.3,00.0,38.1,31.3,24.6,0000.0,0004.77,0010.91,0003.04
2022-06-06 01:05:00,,0820.1,4.99,0.00,29.3,28.4,00.0,38.1,31.3,25.3,0000.0,0004.75,0010.92,0002.99
2022-06-06 01:06:00,,0820.0,4.99,0.00,29.4,28.4,00.0,38.1,31.3,25.6,0000.0,0004.67,0010.71,0002.90
2022-06-06 01:07:00,,0820.0,5.01,0.00,29.4,28.5,00.0,38.2,31.4,25.0,0000.0,0004.56,0010.47,0002.83
2022-06-06 01:08:00,,0820.0,5.01,0.00,29.4,28.6,00.0,38.2,31.4,25.8,0000.0,0004.51,0010.46,0002.78
2022-06-06 01:09:00,,0820.0,4.99,0.00,29.5,28.6,00.0,38.2,31.4,25.7,0000.0,0004.38,0009.95,0002.66
2022-06-06 01:10:00,,0820.1,5.00,0.00,29.5,28.7,00.0,38.2,31.5,25.4,0000.0,0004.29,0009.80,0002.58
2022-06-06 01:11:00,,0820.1,5.01,0.00,29.5,28.5,00.0,38.2,31.4,26.8,0000.0,0004.24,0009.79,0002.54
2022-06-06 01:12:00,,0820.0,4.99,0.00,29.4,27.4,00.0,38.1,31.2,27.3,0000.0,0004.17,0009.68,0002.51
2022-06-06 01:13:00,,0820.0,5.00,0.00,29.3,26.7,00.0,38.1,30.9,26.9,0000.0,0004.18,0009.81,0002.47
2022-06-06 01:14:00,,0819.9,5.00,0.00,29.2,26.5,00.0,38.0,30.8,27.2,0000.0,0004.18,0009.89,0002.47
2022-06-06 01:15:00,,0819.9,4.99,0.00,29.1,26.5,00.0,38.0,30.8,28.2,0000.0,0004.17,0009.84,0002.50
2022-06-06 01:16:00,,0819.9,5.00,0.00,29.1,26.7,00.0,38.0,30.8,28.7,0000.0,0004.14,0009.80,0002.48
2022-06-06 01:17:00,,0820.0,5.01,0.00,29.0,26.9,00.0,38.0,30.8,28.1,0000.0,0004.15,0009.87,0002.46
2022-06-06 01:18:00,,0819.9,5.00,0.00,29.0,27.1,00.0,38.0,30.9,26.5,0000.0,0004.21,0010.02,0002.47
2022-06-06 01:19:00,,0820.0,5.00,0.00,29.0,27.3,00.0,38.0,30.9,26.7,0000.0,0004.25,0010.08,0002.47
2022-06-06 01:20:00,,0820.0,4.99,0.00,29.0,27.5,00.0,38.0,31.0,27.0,0000.0,0004.22,0009.98,0002.46
2022-06-06 01:21:00,,0819.9,5.00,0.00,29.1,27.6,00.0,38.0,31.0,27.4,0000.0,0004.20,0009.71,0002.44
2022-06-06 01:22:00,,0819.9,5.01,0.00,29.1,27.8,00.0,38.0,31.0,27.1,0000.0,0004.22,0009.69,0002.43
2022-06-06 01:23:00,,0819.9,5.00,0.00,29.1,27.9,00.0,38.0,31.1,27.1,0000.0,0004.20,0009.66,0002.41
2022-06-06 01:24:00,,0820.0,4.99,0.00,29.1,28.0,00.0,38.0,31.1,26.5,0000.0,0004.16,0009.49,0002.41
2022-06-06 01:25:00,,0820.0,5.00,0.00,29.2,28.1,00.0,38.0,31.2,26.3,0000.0,0004.14,0009.67,0002.40
2022-06-06 01:26:00,,0820.0,5.01,0.00,29.2,28.2,00.0,38.0,31.2,26.2,0000.0,0004.11,0009.82,0002.38
2022-06-06 01:27:00,,0820.1,5.00,0.00,29.2,28.3,00.0,38.0,31.2,26.7,0000.0,0004.10,0009.82,0002.37
2022-06-06 01:28:00,,0820.1,5.00,0.00,29.3,28.4,00.0,38.1,31.3,26.1,0000.0,0004.03,0010.21,0002.37
2022-06-06 01:29:00,,0820.1,5.01,0.00,29.3,28.5,00.0,38.1,31.3,25.6,0000.0,0003.95,0010.13,0002.34
2022-06-06 01:30:00,,0820.1,4.99,0.00,29.3,28.5,00.0,38.1,31.4,24.8,0000.0,0003.85,0009.88,0002.31
2022-06-06 01:31:00,,0820.1,4.98,0.00,29.4,28.6,00.0,38.1,31.4,25.0,0000.0,0003.78,0009.63,0002.27
2022-06-06 01:32:00,,0820.1,5.00,0.00,29.4,28.6,00.0,38.1,31.4,24.8,0000.0,0003.79,0009.44,0002.25
2022-06-06 01:33:00,,0820.1,5.00,0.00,29.5,28.7,00.0,38.2,31.5,24.2,0000.0,0003.76,0009.43,0002.23
2022-06-06 01:34:00,,0820.1,5.01,0.00,29.5,28.7,00.0,38.2,31.5,24.5,0000.0,0003.73,0009.46,0002.20
2022-06-06 01:35:00,,0820.1,4.99,0.00,29.5,28.0,00.0,38.2,31.3,25.1,0000.0,0003.72,0009.44,0002.18
2022-06-06 01:36:00,,0820.1,5.01,0.00,29.4,27.3,00.0,38.1,31.1,25.0,0000.0,0003.72,0009.27,0002.17
2022-06-06 01:37:00,,0820.1,4.99,0.00,29.3,27.2,00.0,38.1,31.0,25.4,0000.0,0003.67,0008.98,0002.15
2022-06-06 01:38:00,,0820.2,5.01,0.00,29.3,27.2,00.0,38.1,31.0,26.1,0000.0,0003.67,0009.26,0002.12
2022-06-06 01:39:00,,0820.2,4.99,0.00,29.2,27.3,00.0,38.1,31.0,26.2,0000.0,0003.71,0008.91,0002.12
2022-06-06 01:40:00,,0820.3,5.00,0.00,29.2,27.5,00.0,38.1,31.0,26.9,0000.0,0003.77,0008.87,0002.14
2022-06-06 01:41:00,,0820.3,5.00,0.00,29.2,27.6,00.0,38.1,31.1,27.1,0000.0,0003.78,0008.85,0002.15
2022-06-06 01:42:00,,0820.3,5.00,0.00,29.2,27.8,00.0,38.1,31.1,27.6,0000.0,0003.84,0008.96,0002.18
2022-06-06 01:43:00,,0820.3,5.00,0.00,29.3,27.9,00.0,38.1,31.2,29.3,0000.0,0003.79,0008.81,0002.21
2022-06-06 01:44:00,,0820.3,5.01,0.00,29.3,28.0,00.0,38.1,31.2,28.8,0000.0,0003.84,0008.81,0002.25
2022-06-06 01:45:00,,0820.3,5.00,0.00,29.3,28.1,00.0,38.1,31.2,28.2,0000.0,0003.92,0008.94,0002.30
2022-06-06 01:46:00,,0820.3,4.99,0.00,29.3,28.2,00.0,38.1,31.3,27.0,0000.0,0003.95,0009.05,0002.33
2022-06-06 01:47:00,,0820.4,5.00,0.00,29.3,28.3,00.0,38.1,31.3,27.1,0000.0,0003.96,0008.97,0002.38
2022-06-06 01:48:00,,0820.3,5.00,0.00,29.4,28.4,00.0,38.2,31.3,27.9,0000.0,0004.00,0009.02,0002.42
2022-06-06 01:49:00,,0820.3,4.99,0.00,29.4,28.5,00.0,38.2,31.4,26.1,0000.0,0004.07,0008.94,0002.46
2022-06-06 01:50:00,,0820.3,5.01,0.00,29.4,28.6,00.0,38.2,31.4,25.0,0000.0,0004.06,0008.95,0002.48
2022-06-06 01:51:00,,0820.3,4.99,0.00,29.5,28.6,00.0,38.2,31.4,24.7,0000.0,0004.05,0008.90,0002.50
2022-06-06 01:52:00,,0820.4,5.00,0.00,29.5,28.4,00.0,38.2,31.4,24.5,0000.0,0004.14,0009.30,0002.52
2022-06-06 01:53:00,,0820.4,5.00,0.00,29.4,27.6,00.0,38.2,31.2,24.8,0000.0,0004.22,0009.59,0002.53
2022-06-06 01:54:00,,0820.5,5.00,0.00,29.4,27.2,00.0,38.1,31.1,25.7,0000.0,0004.25,0009.81,0002.53
2022-06-06 01:55:00,,0820.5,4.98,0.00,29.3,27.1,00.0,38.1,31.0,26.1,0000.0,0004.24,0009.99,0002.53
2022-06-06 01:56:00,,0820.6,5.01,0.00,29.2,27.2,00.0,38.1,31.0,26.3,0000.0,0004.25,0009.98,0002.52
2022-06-06 01:57:00,,0820.6,4.99,0.00,29.2,27.3,00.0,38.1,31.0,27.0,0000.0,0004.29,0010.09,0002.53
2022-06-06 01:58:00,,0820.6,5.01,0.00,29.2,27.5,00.0,38.1,31.0,25.4,0000.0,0004.26,0010.04,0002.52
2022-06-06 01:59:00,,0820.6,5.00,0.00,29.2,27.6,00.0,38.1,31.1,25.1,0000.0,0004.24,0009.97,0002.51
